TimeMDT,TemperatureF,Dew PointF,Humidity,Sea Level PressureIn,VisibilityMPH,Wind Direction,Wind SpeedMPH,Gust SpeedMPH,PrecipitationIn,Events,Conditions,WindDirDegrees,DateUTC
12:55 AM,37.0,32.0,82,30.06,10.0,North,6.9,-,N/A,,Clear,360,2012-10-31 06:55:00
1:55 AM,35.1,30.0,82,30.06,10.0,North,3.5,-,N/A,,Clear,350,2012-10-31 07:55:00
2:55 AM,32.0,28.0,85,30.08,10.0,NNW,4.6,-,N/A,,Clear,340,2012-10-31 08:55:00
4:55 AM,30.9,27.0,85,30.07,10.0,Calm,Calm,-,N/A,,Clear,0,2012-10-31 10:55:00
5:55 AM,27.0,24.1,89,30.12,10.0,NNW,4.6,-,N/A,,Clear,340,2012-10-31 11:55:00
6:55 AM,28.9,26.1,89,30.15,10.0,NNW,4.6,-,N/A,,Clear,340,2012-10-31 12:55:00
7:55 AM,30.9,27.0,85,30.16,10.0,NNW,6.9,-,N/A,,Clear,340,2012-10-31 13:55:00
8:55 AM,48.0,33.1,56,30.12,10.0,NW,5.8,-,N/A,,Clear,320,2012-10-31 14:55:00
9:55 AM,57.0,30.0,36,30.11,10.0,West,4.6,-,N/A,,Clear,280,2012-10-31 15:55:00
10:55 AM,66.0,24.1,20,30.08,10.0,NW,5.8,-,N/A,,Clear,310,2012-10-31 16:55:00
11:55 AM,68.0,23.0,18,30.05,10.0,WNW,5.8,-,N/A,,Clear,300,2012-10-31 17:55:00
12:55 PM,70.0,21.9,16,30.04,10.0,West,6.9,-,N/A,,Clear,280,2012-10-31 18:55:00
1:55 PM,69.1,21.9,17,30.03,10.0,WNW,10.4,17.3,N/A,,Clear,300,2012-10-31 19:55:00
2:55 PM,70.0,23.0,17,30.03,10.0,North,11.5,-,N/A,,Clear,360,2012-10-31 20:55:00
3:55 PM,69.1,23.0,18,30.03,10.0,North,12.7,-,N/A,,Clear,360,2012-10-31 21:55:00
4:55 PM,64.9,24.1,21,30.06,10.0,North,11.5,-,N/A,,Clear,360,2012-10-31 22:55:00
5:55 PM,54.0,28.0,37,30.12,10.0,North,4.6,-,N/A,,Clear,350,2012-10-31 23:55:00
6:55 PM,45.0,30.0,56,30.16,10.0,NNW,5.8,-,N/A,,Clear,340,2012-11-01 00:55:00
7:55 PM,45.0,32.0,60,30.17,10.0,North,4.6,-,N/A,,Clear,350,2012-11-01 01:55:00
8:55 PM,41.0,30.9,67,30.12,10.0,NW,3.5,-,N/A,,Clear,310,2012-11-01 02:55:00
9:55 PM,39.9,30.0,68,30.11,10.0,Calm,Calm,-,N/A,,Clear,0,2012-11-01 03:55:00
10:55 PM,35.1,28.9,78,30.09,10.0,North,3.5,-,N/A,,Clear,10,2012-11-01 04:55:00
11:55 PM,33.1,28.0,82,30.08,10.0,Calm,Calm,-,N/A,,Clear,0,2012-11-01 05:55:00